FW0194 Weather Reports


time (UTC)temp
C
wind
direction
speed
KPH
gust
KPH
rain 1hr
cm
rain 24hr
cm
rain mn
cm
humidity
%
barometer
mb
20260506212632 21 288 3.2 16.1 0.00 0.00 0.00 69 1016.5
20260506212412 21 278 3.2 16.1 0.00 0.00 0.00 70 1016.5
20260506211630 20 289 8.0 14.5 0.00 0.00 0.00 70 1016.6
20260506211130 20 313 6.4 16.1 0.00 0.00 0.00 71 1016.6
20260506210910 20 299 3.2 17.7 0.00 0.00 0.00 73 1016.8
20260506210130 20 317 8.0 17.7 0.00 0.00 0.00 71 1016.8
20260506205630 20 320 6.4 20.9 0.00 0.00 0.00 72 1016.7
20260506205129 20 272 4.8 20.9 0.00 0.00 0.00 72 1016.8
20260506204628 20 288 4.8 20.9 0.00 0.00 0.00 73 1016.7
20260506204126 19 276 9.7 20.9 0.00 0.00 0.00 73 1016.8
20260506203622 19 257 4.8 20.9 0.00 0.00 0.00 74 1016.8
20260506203120 19 219 9.7 20.9 0.00 0.00 0.00 74 1016.9
20260506202619 19 327 9.7 16.1 0.00 0.00 0.00 73 1016.9
20260506202110 19 303 8.0 19.3 0.00 0.00 0.00 73 1016.8
20260506201612 19 255 4.8 25.7 0.00 0.00 0.00 74 1016.8
20260506201109 19 298 9.7 25.7 0.00 0.00 0.00 72 1016.9
20260506200612 20 283 9.7 22.5 0.00 0.00 0.00 71 1016.9
20260506200109 20 258 4.8 22.5 0.00 0.00 0.00 71 1016.8
20260506195606 20 314 9.7 22.5 0.00 0.00 0.00 70 1016.9
20260506195106 20 358 6.4 16.1 0.00 0.00 0.00 71 1017.0
20260506194605 20 336 6.4 17.7 0.00 0.00 0.00 72 1016.9
20260506194101 19 274 6.4 17.7 0.00 0.00 0.00 72 1016.9
20260506193559 19 244 8.0 17.7 0.00 0.00 0.00 72 1017.1
20260506193058 19 271 8.0 17.7 0.00 0.00 0.00 72 1017.0
20260506192554 19 269 8.0 17.7 0.00 0.00 0.00 73 1017.1
20260506192050 19 306 8.0 19.3 0.00 0.00 0.00 72 1017.1
20260506191544 19 275 4.8 19.3 0.00 0.00 0.00 73 1017.2
20260506191042 19 269 3.2 16.1 0.00 0.00 0.00 73 1017.2
20260506190824 18 336 6.4 20.9 0.00 0.00 0.00 74 1017.2
20260506190041 19 285 9.7 20.9 0.00 0.00 0.00 74 1017.2
20260506185603 18 272 9.7 24.1 0.00 0.00 0.00 74 1017.3
20260506185551 18 257 4.8 24.1 0.00 0.00 0.00 75 1017.3
20260506184816 18 295 8.0 16.1 0.00 0.00 0.00 74 1017.3
20260506184036 18 290 6.4 17.7 0.00 0.00 0.00 74 1017.3
20260506183536 18 274 6.4 17.7 0.00 0.00 0.00 75 1017.4
20260506183035 18 306 8.0 14.5 0.00 0.00 0.00 73 1017.4
20260506182534 18 274 3.2 14.5 0.00 0.00 0.00 74 1017.5
20260506182031 18 271 4.8 14.5 0.00 0.00 0.00 74 1017.6
20260506181533 18 286 6.4 14.5 0.00 0.00 0.00 72 1017.6
20260506181029 18 266 1.6 9.7 0.00 0.00 0.00 73 1017.6
20260506180528 18 266 4.8 9.7 0.00 0.00 0.00 73 1017.6
20260506180030 18 283 6.4 9.7 0.00 0.00 0.00 73 1017.7
20260506175533 18 288 3.2 9.7 0.00 0.00 0.00 74 1017.8
20260506175033 18 289 3.2 11.3 0.00 0.00 0.00 74 1017.8
20260506174533 17 272 4.8 11.3 0.00 0.00 0.00 74 1017.7
20260506174036 17 281 4.8 11.3 0.00 0.00 0.00 75 1017.8
20260506173531 17 254 3.2 9.7 0.00 0.00 0.00 76 1017.8
20260506173030 17 295 4.8 9.7 0.00 0.00 0.00 77 1017.8
20260506172526 17 258 3.2 9.7 0.00 0.00 0.00 78 1017.8
20260506172026 17 288 3.2 9.7 0.00 0.00 0.00 78 1017.9
20260506171527 17 252 4.8 9.7 0.00 0.00 0.00 77 1017.9
20260506171026 17 320 4.8 8.0 0.00 0.00 0.00 77 1017.8
20260506170758 17 274 3.2 8.0 0.00 0.00 0.00 77 1017.9
20260506170026 17 299 4.8 14.5 0.00 0.00 0.00 78 1017.8
20260506165528 17 298 3.2 14.5 0.00 0.00 0.00 78 1017.8
20260506165257 17 283 6.4 9.7 0.00 0.00 0.00 76 1017.8
20260506164525 17 288 3.2 9.7 0.00 0.00 0.00 76 1017.7
20260506164025 17 290 4.8 9.7 0.00 0.00 0.00 75 1017.7
20260506163525 18 264 1.6 9.7 0.00 0.00 0.00 76 1017.7
20260506163026 18 283 4.8 8.0 0.00 0.00 0.00 75 1017.7
20260506162525 18 279 1.6 4.8 0.00 0.00 0.00 75 1017.8
20260506162300 18 281 0.0 3.2 0.00 0.00 0.00 77 1017.7
20260506161525 17 282 1.6 4.8 0.00 0.00 0.00 77 1017.8
20260506161258 17 282 0.0 4.8 0.00 0.00 0.00 77 1017.8
20260506160524 17 283 1.6 4.8 0.00 0.00 0.00 78 1017.8
20260506160254 16 285 1.6 3.2 0.00 0.00 0.00 79 1017.8
20260506155525 16 286 0.0 3.2 0.00 0.00 0.00 80 1017.8
20260506155025 16 286 1.6 4.8 0.00 0.00 0.00 80 1017.8
20260506154524 16 288 1.6 4.8 0.00 0.00 0.00 80 1017.8
20260506154024 16 286 1.6 4.8 0.00 0.00 0.00 82 1017.9
20260506153524 15 285 0.0 4.8 0.00 0.00 0.00 82 1017.9
20260506153023 15 285 1.6 4.8 0.00 0.00 0.00 83 1018.1
20260506152523 15 285 0.0 4.8 0.00 0.00 0.00 84 1018.1
20260506152024 14 285 3.2 4.8 0.00 0.00 0.00 84 1018.1
20260506151523 14 295 3.2 4.8 0.00 0.00 0.00 84 1018.1
20260506151252 14 299 1.6 4.8 0.00 0.00 0.00 85 1018.1
20260506150522 14 300 1.6 4.8 0.00 0.00 0.00 84 1018.2
20260506150023 14 94 1.6 4.8 0.00 0.00 0.00 84 1018.2
20260506145754 14 96 0.0 0.0 0.00 0.00 0.00 85 1018.2
20260506145022 13 96 0.0 0.0 0.00 0.00 0.00 86 1018.2
20260506144752 13 96 0.0 0.0 0.00 0.00 0.00 86 1018.2
20260506144022 13 96 0.0 0.0 0.00 0.00 0.00 87 1018.1
20260506143522 13 96 0.0 0.0 0.00 0.00 0.00 88 1017.9
20260506143024 12 90 0.0 0.0 0.00 0.00 0.00 90 1017.8
20260506142522 12 89 0.0 0.0 0.00 0.00 0.00 91 1017.9
20260506142021 12 89 0.0 0.0 0.00 0.00 0.00 93 1017.8
20260506141522 11 89 0.0 0.0 0.00 0.00 0.00 94 1017.7
20260506141021 11 89 0.0 0.0 0.00 0.00 0.00 94 1017.8
20260506140522 11 89 0.0 1.6 0.00 0.00 0.00 94 1017.8
20260506140021 10 89 0.0 4.8 0.00 0.00 0.00 94 1017.7
20260506135521 10 89 1.6 4.8 0.00 0.00 0.00 95 1017.6
20260506135021 10 341 0.0 1.6 0.00 0.00 0.00 95 1017.6
20260506134520 10 341 0.0 3.2 0.00 0.00 0.00 95 1017.6
20260506134022 10 341 0.0 3.2 0.00 0.00 0.00 95 1017.7
20260506133522 10 341 0.0 3.2 0.00 0.00 0.00 94 1017.7
20260506133254 10 341 0.0 4.8 0.00 0.00 0.00 94 1017.7
20260506132520 10 341 1.6 4.8 0.00 0.00 0.00 94 1017.5
20260506132019 10 47 3.2 4.8 0.00 0.00 0.00 94 1017.5
20260506131521 10 100 3.2 4.8 0.00 0.00 0.00 94 1017.5
20260506131252 10 100 1.6 3.2 0.00 0.00 0.00 95 1017.3
20260506130520 9 102 0.0 1.6 0.00 0.00 0.00 95 1017.2
20260506130254 9 102 0.0 1.6 0.00 0.00 0.00 95 1017.2
20260506125521 9 102 0.0 1.6 0.00 0.00 0.00 94 1017.0
20260506125019 9 102 0.0 3.2 0.00 0.00 0.00 94 1017.1
20260506124520 9 102 1.6 3.2 0.00 0.00 0.00 94 1017.1
20260506124251 8 102 0.0 3.2 0.00 0.00 0.00 94 1017.0
20260506123520 8 102 0.0 1.6 0.00 0.00 0.00 94 1017.0
20260506123019 9 102 0.0 1.6 0.00 0.00 0.00 94 1016.9
20260506122520 9 102 0.0 1.6 0.00 0.00 0.00 94 1017.0
20260506122020 9 102 0.0 1.6 0.00 0.00 0.00 94 1017.2
20260506121519 9 102 0.0 3.2 0.00 0.00 0.00 94 1017.2
20260506121020 9 102 0.0 3.2 0.00 0.00 0.00 94 1017.1
20260506120519 9 102 0.0 1.6 0.00 0.00 0.00 93 1017.1
20260506120020 9 102 0.0 1.6 0.00 0.00 0.00 93 1017.2
20260506115518 9 102 0.0 3.2 0.00 0.00 0.00 94 1017.3
20260506115018 9 102 0.0 6.4 0.00 0.00 0.00 94 1017.2
20260506114519 9 102 1.6 6.4 0.00 0.00 0.00 94 1017.3
20260506114019 9 80 0.0 1.6 0.00 0.00 0.00 93 1017.3
20260506113518 9 80 0.0 1.6 0.00 0.00 0.00 93 1017.3
20260506113019 9 80 0.0 1.6 0.00 0.00 0.00 93 1017.4
20260506112518 9 80 0.0 0.0 0.00 0.00 0.00 93 1017.3
20260506112017 9 80 0.0 4.8 0.00 0.00 0.00 93 1017.3
20260506111518 9 80 1.6 4.8 0.00 0.00 0.00 93 1017.3
20260506111017 10 80 0.0 3.2 0.00 0.00 0.00 93 1017.3
20260506110516 10 80 0.0 3.2 0.00 0.00 0.00 93 1017.3
20260506110017 10 80 0.0 1.6 0.00 0.00 0.00 93 1017.2
20260506105518 10 80 0.0 1.6 0.00 0.00 0.00 94 1017.2
20260506105017 10 80 0.0 0.0 0.00 0.00 0.00 94 1017.3
20260506104517 10 80 0.0 0.0 0.00 0.00 0.00 94 1017.2
20260506104017 10 80 0.0 0.0 0.00 0.00 0.00 94 1017.2
20260506103515 10 80 0.0 0.0 0.00 0.00 0.00 93 1017.2
20260506103016 10 80 0.0 0.0 0.00 0.00 0.00 93 1017.3
20260506102516 10 80 0.0 0.0 0.00 0.00 0.00 93 1017.2
20260506102017 10 80 0.0 1.6 0.00 0.00 0.00 93 1017.2
20260506101755 10 80 0.0 1.6 0.00 0.00 0.00 93 1017.2
20260506101017 10 80 0.0 1.6 0.00 0.00 0.00 93 1017.1
20260506100517 10 80 0.0 3.2 0.00 0.00 0.00 93 1017.1
20260506100255 10 80 0.0 4.8 0.00 0.00 0.00 93 1017.1
20260506095753 10 80 1.6 4.8 0.00 0.00 0.00 93 1017.1
20260506095016 10 65 0.0 3.2 0.00 0.00 0.00 93 1017.1
20260506094515 10 63 0.0 3.2 0.00 0.00 0.00 93 1017.1
20260506094016 10 63 0.0 3.2 0.00 0.00 0.00 93 1017.1
20260506093515 10 63 1.6 4.8 0.00 0.00 0.00 93 1017.1
20260506093016 10 63 0.0 4.8 0.00 0.00 0.00 93 1017.1
20260506092517 10 58 1.6 3.2 0.00 0.00 0.00 93 1017.2
20260506092014 10 58 0.0 3.2 0.00 0.00 0.00 93 1017.2
20260506091514 10 58 0.0 3.2 0.00 0.00 0.00 93 1017.1
20260506091255 10 55 1.6 3.2 0.00 0.00 0.00 93 1017.2
20260506090514 10 38 0.0 1.6 0.00 0.00 0.00 92 1017.4
20260506090014 11 38 0.0 1.6 0.00 0.00 0.00 92 1017.4
20260506085515 11 38 0.0 6.4 0.00 0.00 0.00 92 1017.4
20260506085015 11 37 1.6 6.4 0.00 0.00 0.00 93 1017.3
20260506084514 11 34 0.0 3.2 0.00 0.00 0.00 93 1017.4
20260506084015 11 34 0.0 3.2 0.00 0.00 0.00 93 1017.5
20260506083544 11 34 0.0 0.0 0.00 0.00 0.00 92 1017.5
20260506083538 11 34 0.0 1.6 0.00 0.00 0.00 93 1017.5
20260506082514 11 34 0.0 1.6 0.00 0.00 0.00 92 1017.5
20260506082015 11 34 0.0 4.8 0.00 0.00 0.00 92 1017.6
20260506081516 11 32 0.0 4.8 0.00 0.00 0.00 92 1017.5
20260506081015 11 31 0.0 1.6 0.00 0.00 0.00 92 1017.5
20260506080514 11 31 0.0 0.0 0.00 0.00 0.00 92 1017.5
20260506073513 11 31 0.0 1.6 0.00 0.00 0.00 92 1017.4
20260506073014 11 31 0.0 1.6 0.00 0.00 0.00 92 1017.4
20260506072514 12 31 0.0 4.8 0.00 0.00 0.00 92 1017.4
20260506072014 12 31 0.0 4.8 0.00 0.00 0.00 92 1017.3
20260506071750 12 8 0.0 3.2 0.00 0.00 0.00 91 1017.4
20260506071027 12 7 0.0 3.2 0.00 0.00 0.00 91 1017.2
20260506071021 12 8 0.0 3.2 0.00 0.00 0.00 91 1017.3
20260506062511 12 303 0.0 3.2 0.00 0.00 0.00 90 1017.0
20260506062013 12 302 0.0 3.2 0.00 0.00 0.00 90 1017.0
20260506061513 12 300 0.0 3.2 0.00 0.00 0.00 90 1017.0
20260506061013 12 299 1.6 6.4 0.00 0.00 0.00 90 1016.9
20260506060512 12 295 0.0 6.4 0.00 0.00 0.00 90 1016.9
20260506051009 12 285 3.2 6.4 0.00 0.00 0.00 89 1016.6
20260506050512 12 290 1.6 4.8 0.00 0.00 0.00 89 1016.5
20260506045011 12 34 1.6 8.0 0.00 0.00 0.00 89 1016.4
20260506044510 12 303 1.6 8.0 0.00 0.00 0.00 88 1016.3
20260506044011 12 316 1.6 4.8 0.00 0.00 0.00 88 1016.3
20260506043510 12 310 0.0 8.0 0.00 0.00 0.00 88 1016.3
20260506043010 12 320 3.2 8.0 0.00 0.00 0.00 88 1016.2
20260506042510 12 307 1.6 6.4 0.00 0.00 0.00 88 1016.2
20260506042011 12 293 3.2 8.0 0.00 0.00 0.00 87 1016.2
20260506041509 13 288 3.2 8.0 0.00 0.00 0.00 87 1016.1
20260506041009 13 298 3.2 6.4 0.00 0.00 0.00 87 1016.0
20260506040511 13 288 1.6 8.0 0.00 0.00 0.00 87 1016.0
20260506040008 13 358 3.2 8.0 0.00 0.00 0.00 86 1015.9
20260506035507 13 261 1.6 8.0 0.00 0.00 0.00 86 1015.8
20260506035008 13 305 3.2 6.4 0.00 0.00 0.00 86 1015.7
20260506034507 13 286 1.6 6.4 0.00 0.00 0.00 85 1015.6
20260506034007 13 293 3.2 9.7 0.00 0.00 0.00 85 1015.6
20260506033513 13 292 1.6 9.7 0.00 0.00 0.00 85 1015.5
20260506033014 13 290 3.2 11.3 0.00 0.00 0.00 85 1015.5
20260506032745 13 293 3.2 11.3 0.00 0.00 0.00 84 1015.4
20260506032001 13 282 3.2 9.7 0.00 0.00 0.00 84 1015.3
20260506031732 13 298 1.6 19.3 0.00 0.00 0.00 84 1015.2
20260506030952 13 299 6.4 19.3 0.00 0.00 0.00 83 1015.0
20260506030728 13 279 3.2 9.7 0.00 0.00 0.00 83 1015.0
20260506025950 13 285 3.2 16.1 0.00 0.00 0.00 83 1014.9
20260506025720 13 323 4.8 16.1 0.00 0.00 0.00 82 1014.8
20260506024943 14 289 6.4 14.5 0.00 0.00 0.00 81 1014.8
20260506024718 14 276 3.2 17.7 0.00 0.00 0.00 80 1014.6
20260506024004 14 306 1.6 14.5 0.00 0.00 0.00 79 1014.6
20260506023952 14 313 6.4 17.7 0.00 0.00 0.00 80 1014.6
20260506022937 15 309 3.2 9.7 0.00 0.00 0.00 78 1014.6
20260506022714 15 341 4.8 9.7 0.00 0.00 0.00 77 1014.5
20260506021938 15 309 4.8 9.7 0.00 0.00 0.00 76 1014.5
20260506021435 15 288 4.8 17.7 0.00 0.00 0.00 75 1014.6
20260506020935 15 309 3.2 17.7 0.00 0.00 0.00 73 1014.5
20260506020434 16 286 4.8 16.1 0.00 0.00 0.00 72 1014.5
20260506015938 16 290 8.0 17.7 0.00 0.00 0.00 71 1014.3
20260506015438 16 317 3.2 17.7 0.00 0.00 0.00 70 1014.3
20260506014933 16 292 4.8 11.3 0.00 0.00 0.00 69 1014.2
20260506014707 16 266 4.8 16.1 0.00 0.00 0.00 68 1014.2
20260506014222 17 340 6.4 16.1 0.00 0.00 0.00 67 1014.2
20260506014216 17 336 3.2 17.7 0.00 0.00 0.00 67 1014.2
20260506012928 17 1 1.6 17.7 0.00 0.00 0.00 67 1014.1
20260506012429 17 295 4.8 22.5 0.00 0.00 0.00 66 1014.2
20260506011923 17 292 4.8 22.5 0.00 0.00 0.00 68 1014.2
20260506011425 17 319 6.4 19.3 0.00 0.00 0.00 67 1014.1
20260506011213 17 321 8.0 17.7 0.00 0.00 0.00 65 1014.2
20260506010928 17 285 6.4 19.3 0.00 0.00 0.00 66 1014.1
20260506005920 17 286 6.4 19.3 0.00 0.00 0.00 66 1014.1
20260506005413 18 306 8.0 19.3 0.00 0.00 0.00 65 1014.2
20260506004912 18 307 3.2 16.1 0.00 0.00 0.00 66 1014.1
20260506004415 18 17 4.8 16.1 0.00 0.00 0.00 66 1014.2
20260506003910 18 32 9.7 16.1 0.00 0.00 0.00 65 1014.1
20260506003409 18 347 3.2 9.7 0.00 0.00 0.00 66 1014.1
20260506002906 18 0 3.2 19.3 0.00 0.00 0.00 67 1014.0
20260506002407 18 62 6.4 19.3 0.00 0.00 0.00 67 1014.0
20260506001920 18 329 1.6 11.3 0.00 0.00 0.00 68 1013.9
20260506001403 18 0 4.8 16.1 0.00 0.00 0.00 69 1013.9
20260506000903 18 283 9.7 16.1 0.00 0.00 0.00 69 1013.9
20260506000405 18 306 6.4 16.1 0.00 0.00 0.00 69 1013.9
20260505235903 18 296 4.8 16.1 0.00 0.00 0.00 73 1013.9
20260505235403 18 296 4.8 17.7 0.00 0.00 0.00 71 1013.9
20260505234903 18 259 6.4 17.7 0.00 0.00 0.00 73 1013.9
20260505234403 18 272 8.0 16.1 0.00 0.00 0.00 72 1013.9
20260505233902 18 274 4.8 14.5 0.00 0.00 0.00 73 1013.9
20260505233403 18 307 6.4 16.1 0.00 0.00 0.00 73 1014.0
20260505232904 18 286 6.4 19.3 0.00 0.00 0.00 74 1014.0
20260505232404 17 306 8.0 19.3 0.00 0.00 0.00 74 1014.0
20260505231904 17 271 9.7 19.3 0.00 0.00 0.00 73 1013.9
20260505231405 17 272 4.8 20.9 0.00 0.00 0.00 74 1013.9
20260505230903 17 292 9.7 20.9 0.00 0.00 0.00 73 1014.0
20260505230403 17 303 6.4 20.9 0.00 0.00 0.00 74 1014.0
20260505225903 17 285 8.0 20.9 0.00 0.00 0.00 73 1014.1
20260505225634 17 306 6.4 17.7 0.00 0.00 0.00 74 1014.1
20260505225134 17 137 6.4 24.1 0.00 0.00 0.00 74 1014.2
20260505224402 17 309 6.4 24.1 0.00 0.00 0.00 73 1014.2
20260505223901 17 309 8.0 17.7 0.00 0.00 0.00 74 1014.3
20260505223401 17 314 8.0 17.7 0.00 0.00 0.00 73 1014.4
20260505223131 17 279 6.4 19.3 0.00 0.00 0.00 73 1014.3
20260505222401 17 299 9.7 20.9 0.00 0.00 0.00 73 1014.4
20260505221900 17 283 11.3 25.7 0.00 0.00 0.00 73 1014.5
20260505221646 17 259 12.9 25.7 0.00 0.00 0.00 71 1014.4
20260505220901 17 296 6.4 17.7 0.00 0.00 0.00 72 1014.4
20260505220401 17 259 8.0 17.7 0.00 0.00 0.00 73 1014.4
20260505215900 17 285 6.4 17.7 0.00 0.00 0.00 72 1014.5
20260505215359 17 290 9.7 17.7 0.00 0.00 0.00 71 1014.6
20260505214903 17 283 8.0 17.7 0.00 0.00 0.00 69 1014.8
20260505214402 17 307 4.8 16.1 0.00 0.00 0.00 70 1014.7
20260505213901 17 283 4.8 16.1 0.00 0.00 0.00 72 1014.7
20260505213403 17 250 6.4 17.7 0.00 0.00 0.00 73 1014.9